Location: Newark
(45.8511°N, 10.8245°E)
Time: 01:08:30
(UTC+00:00)

OTV 5 (USA 277) - Pass Details

Date: 28 August 2019
Orbit: 295 x 339 km, 54.5° (Epoch: 08 September)

Event Time Altitude Azimuth Distance (km) Brightness Sun altitude
Rises 20:27:07 0° 287° (WNW) 1,997 ? -22.7°
Reaches altitude 10° 20:29:41 10° 316° (NW) 1,168 ? -23.0°
Maximum altitude 20:31:08 14° 351° (N) 984 ? -23.2°
Enters shadow 20:31:18 14° 355° (N) 987 ? -23.2°
